Miscellaneous Local Product
Issued by NWS Hastings, NE

Home | Current Version | Previous Version | Text Only | Print | Product List | Glossary Off
Versions: 1 2 3 4 5 6 7 8 9 10 11 12 13 14 15 16 17 18 19 20 21 22 23 24 25 26 27 28 29 30 31 32 33 34 35 36 37 38 39 40 41 42 43 44 45 46 47 48 49 50

000
AXUS43 KGID 252102
MISGRI

GID CWA HOURLY WEATHER ROUNDUP
NATIONAL WEATHER SERVICE HASTINGS NE
400 PM CDT MON SEP 25 2017

NOTE: "FAIR" INDICATES FEW OR NO CLOUDS BELOW 12,000 FEET WITH NO
SIGNIFICANT WEATHER AND/OR OBSTRUCTIONS TO VISIBILITY.

...SOUTH CENTRAL NEBRASKA...

CITY           SKY/WX    TMP DP  RH WIND       PRES   REMARKS
GRAND ISLAND   CLOUDY    53  53 100 N14       29.99F
HASTINGS       CLOUDY    54  52  93 N16       29.98F FOG
KEARNEY        LGT RAIN  53  52  96 N14       29.99F FOG
ORD            LGT RAIN  51  47  86 N14       30.02S FOG
YORK           CLOUDY    57  55  94 NW10      29.98R
AURORA         CLOUDY    53  53 100 N13       29.98F FOG
LEXINGTON      CLOUDY    54  49  83 NE9       30.02S
HOLDREGE       CLOUDY    53  51  93 N9G16     29.99F
HEBRON         LGT RAIN  60  59  97 N10       29.93S

...NEBRASKA PANHANDLE...

CITY           SKY/WX    TMP DP  RH WIND       PRES   REMARKS
CHADRON        CLOUDY    53  39  59 CALM      30.10S
ALLIANCE       CLOUDY    51  41  68 N9        30.08F
SCOTTSBLUFF    CLOUDY    54  41  61 W5        30.09S
SIDNEY         CLOUDY    49  42  77 N13       30.09S

...WESTERN AND NORTH CENTRAL NEBRASKA...

CITY           SKY/WX    TMP DP  RH WIND       PRES   REMARKS
VALENTINE      CLOUDY    52  44  74 NE10      30.09R
AINSWORTH      CLOUDY    49  47  93 N12       30.08R
ONEILL         CLOUDY    50  50 100 N13       30.04F FOG
BROKEN BOW     LGT RAIN  52  48  86 N12       30.03S
IMPERIAL       LGT RAIN  50  47  89 E6        30.06S
NORTH PLATTE   CLOUDY    52  48  86 N9        30.06S
MCCOOK         CLOUDY    53  50  89 N13       30.03S

...EASTERN NEBRASKA...

CITY           SKY/WX    TMP DP  RH WIND       PRES   REMARKS
NORFOLK        CLOUDY    54  53  97 N13       29.96F
SO SIOUX CITY  LGT RAIN  58  56  93 N7        29.96R
TEKAMAH        CLOUDY    62  59  90 N9        29.93R
COLUMBUS       CLOUDY    56  55  97 N8        29.97F
ALBION         CLOUDY    54  52  94 N8        30.00F FOG
OMAHA EPPLEY   LGT RAIN  65  62  90 NW8       29.92R
OFFUTT AFB     LGT RAIN  65  63  92 W10       29.91R
MILLARD        LGT RAIN  65  64  94 NW8       29.93S
LINCOLN        LGT RAIN  62  59  90 N6        29.94F
NEBRASKA CITY  RAIN      67  67 100 W14       29.94R
BEATRICE       LGT RAIN  64  63  97 NE3       29.92F
FALLS CITY     LGT RAIN  67  66  97 NW14G25   29.90R

...NORTHERN KANSAS...

CITY           SKY/WX    TMP DP  RH WIND       PRES   REMARKS
GOODLAND       CLOUDY    50  48  93 N14       30.03S FOG
HILL CITY      CLOUDY    55  54  96 N10       29.99S
NORTON         DRIZZLE   54  48  82 NW14      29.98F
PHILLIPSBURG   CLOUDY    55  55 100 NW13      29.97F
SMITH CENTER   CLOUDY    55  54  94 N12       29.96R
HAYS           CLOUDY    58  55  90 N13       29.95S
RUSSELL        CLOUDY    57  56  96 N13       29.91F FOG
CONCORDIA      LGT RAIN  64  64 100 SE10      29.88F
SALINA         LGT RAIN  67  64  90 E12       29.89F
TOPEKA         CLOUDY    77  67  71 NW16G23   29.85S



USA.gov is the U.S. government's official web portal to all federal, state and local government web resources and services.